| time (UTC) | temp F | wind direction | speed knots | gust knots | rain 1hr in | rain 24hr in | rain mn in | humidity % | barometer mb |
| 20260509233509 | 96 | 190 | 1.7 | 7.0 | 0.00 | 0.00 | 0.00 | 29 | 1004.4 |
| 20260509233058 | 96 | 190 | 2.6 | 5.2 | 0.00 | 0.00 | 0.00 | 28 | 1004.3 |
| 20260509233020 | 96 | 190 | 2.6 | 5.2 | 0.00 | 0.00 | 0.00 | 29 | 1004.3 |
| 20260509232515 | 96 | 190 | 1.7 | 5.2 | 0.00 | 0.00 | 0.00 | 30 | 1004.3 |
| 20260509232009 | 96 | 190 | 0.0 | 8.7 | 0.00 | 0.00 | 0.00 | 29 | 1004.1 |
| 20260509231601 | 96 | 190 | 1.7 | 8.7 | 0.00 | 0.00 | 0.00 | 29 | 1004.1 |
| 20260509231509 | 96 | 190 | 0.0 | 8.7 | 0.00 | 0.00 | 0.00 | 29 | 1004.1 |
| 20260509231008 | 96 | 190 | 3.5 | 8.7 | 0.00 | 0.00 | 0.00 | 29 | 1004.0 |
| 20260509230508 | 96 | 190 | 3.5 | 7.8 | 0.00 | 0.00 | 0.00 | 29 | 1003.9 |
| 20260509230008 | 96 | 190 | 2.6 | 10.4 | 0.00 | 0.00 | 0.00 | 29 | 1003.9 |
| 20260509225508 | 96 | 190 | 5.2 | 10.4 | 0.00 | 0.00 | 0.00 | 29 | 1003.9 |
| 20260509225009 | 96 | 190 | 2.6 | 7.8 | 0.00 | 0.00 | 0.00 | 29 | 1003.9 |
| 20260509224601 | 96 | 190 | 2.6 | 10.4 | 0.00 | 0.00 | 0.00 | 28 | 1003.8 |
| 20260509224507 | 96 | 190 | 3.5 | 10.4 | 0.00 | 0.00 | 0.00 | 29 | 1003.9 |
| 20260509224008 | 96 | 190 | 3.5 | 10.4 | 0.00 | 0.00 | 0.00 | 29 | 1003.9 |
| 20260509223506 | 96 | 190 | 3.5 | 7.0 | 0.00 | 0.00 | 0.00 | 29 | 1003.9 |
| 20260509223058 | 96 | 190 | 0.9 | 6.1 | 0.00 | 0.00 | 0.00 | 29 | 1003.9 |
| 20260509223005 | 96 | 190 | 1.7 | 5.2 | 0.00 | 0.00 | 0.00 | 29 | 1004.0 |
| 20260509222505 | 96 | 190 | 1.7 | 6.1 | 0.00 | 0.00 | 0.00 | 29 | 1004.0 |
| 20260509222103 | 96 | 190 | 2.6 | 7.0 | 0.00 | 0.00 | 0.00 | 29 | 1004.0 |
| 20260509221603 | 96 | 190 | 3.5 | 9.6 | 0.00 | 0.00 | 0.00 | 28 | 1004.1 |
| 20260509221504 | 96 | 190 | 2.6 | 8.7 | 0.00 | 0.00 | 0.00 | 29 | 1004.1 |
| 20260509221006 | 96 | 190 | 2.6 | 9.6 | 0.00 | 0.00 | 0.00 | 29 | 1004.1 |
| 20260509220502 | 96 | 190 | 4.3 | 9.6 | 0.00 | 0.00 | 0.00 | 29 | 1004.1 |
| 20260509220110 | 96 | 190 | 2.6 | 10.4 | 0.00 | 0.00 | 0.00 | 28 | 1004.4 |
| 20260509220002 | 96 | 190 | 1.7 | 9.6 | 0.00 | 0.00 | 0.00 | 28 | 1004.2 |
| 20260509215501 | 96 | 190 | 3.5 | 10.4 | 0.00 | 0.00 | 0.00 | 29 | 1004.3 |
| 20260509215100 | 97 | 190 | 5.2 | 10.4 | 0.00 | 0.00 | 0.00 | 28 | 1004.4 |
| 20260509214604 | 97 | 190 | 0.0 | 7.8 | 0.00 | 0.00 | 0.00 | 29 | 1004.7 |
| 20260509214602 | 96 | 190 | 0.0 | 7.8 | 0.00 | 0.00 | 0.00 | 30 | 1004.5 |
| 20260509214057 | 96 | 190 | 2.6 | 7.8 | 0.00 | 0.00 | 0.00 | 29 | 1004.6 |
| 20260509213558 | 96 | 190 | 2.6 | 7.8 | 0.00 | 0.00 | 0.00 | 30 | 1004.7 |
| 20260509213138 | 96 | 190 | 3.5 | 10.4 | 0.00 | 0.00 | 0.00 | 29 | 1004.9 |
| 20260509213056 | 96 | 190 | 2.6 | 10.4 | 0.00 | 0.00 | 0.00 | 29 | 1004.8 |
| 20260509212554 | 96 | 190 | 3.5 | 10.4 | 0.00 | 0.00 | 0.00 | 29 | 1004.9 |
| 20260509212054 | 96 | 190 | 5.2 | 11.3 | 0.00 | 0.00 | 0.00 | 30 | 1005.0 |
| 20260509211556 | 97 | 190 | 4.3 | 9.6 | 0.00 | 0.00 | 0.00 | 29 | 1005.2 |
| 20260509211055 | 96 | 190 | 1.7 | 9.6 | 0.00 | 0.00 | 0.00 | 30 | 1005.0 |
| 20260509210550 | 97 | 190 | 1.7 | 8.7 | 0.00 | 0.00 | 0.00 | 30 | 1005.1 |
| 20260509210106 | 97 | 190 | 4.3 | 10.4 | 0.00 | 0.00 | 0.00 | 29 | 1005.3 |
| 20260509210048 | 97 | 190 | 1.7 | 10.4 | 0.00 | 0.00 | 0.00 | 29 | 1005.1 |
| 20260509205546 | 96 | 190 | 3.5 | 10.4 | 0.00 | 0.00 | 0.00 | 29 | 1005.2 |
| 20260509205049 | 96 | 190 | 1.7 | 10.4 | 0.00 | 0.00 | 0.00 | 29 | 1005.3 |
| 20260509204559 | 96 | 190 | 3.5 | 9.6 | 0.00 | 0.00 | 0.00 | 29 | 1005.6 |
| 20260509204545 | 96 | 190 | 3.5 | 9.6 | 0.00 | 0.00 | 0.00 | 30 | 1005.5 |
| 20260509204044 | 96 | 190 | 2.6 | 9.6 | 0.00 | 0.00 | 0.00 | 29 | 1005.6 |
| 20260509203544 | 96 | 190 | 2.6 | 11.3 | 0.00 | 0.00 | 0.00 | 29 | 1005.7 |
| 20260509203103 | 95 | 190 | 5.2 | 11.3 | 0.00 | 0.00 | 0.00 | 30 | 1005.8 |
| 20260509203100 | 96 | 190 | 6.1 | 11.3 | 0.00 | 0.00 | 0.00 | 29 | 1005.8 |
| 20260509202545 | 96 | 190 | 4.3 | 8.7 | 0.00 | 0.00 | 0.00 | 29 | 1005.9 |
| 20260509202041 | 96 | 190 | 2.6 | 10.4 | 0.00 | 0.00 | 0.00 | 29 | 1006.0 |
| 20260509201559 | 96 | 190 | 4.3 | 10.4 | 0.00 | 0.00 | 0.00 | 29 | 1006.3 |
| 20260509201539 | 96 | 190 | 4.3 | 10.4 | 0.00 | 0.00 | 0.00 | 29 | 1006.1 |
| 20260509201037 | 96 | 190 | 4.3 | 8.7 | 0.00 | 0.00 | 0.00 | 29 | 1006.3 |
| 20260509200537 | 96 | 190 | 5.2 | 10.4 | 0.00 | 0.00 | 0.00 | 30 | 1006.5 |
| 20260509200104 | 95 | 190 | 4.3 | 10.4 | 0.00 | 0.00 | 0.00 | 30 | 1006.6 |
| 20260509200036 | 95 | 190 | 3.5 | 10.4 | 0.00 | 0.00 | 0.00 | 30 | 1006.6 |
| 20260509195545 | 96 | 190 | 4.3 | 9.6 | 0.00 | 0.00 | 0.00 | 30 | 1006.8 |
| 20260509195034 | 95 | 190 | 2.6 | 12.2 | 0.00 | 0.00 | 0.00 | 30 | 1006.9 |
| 20260509194557 | 95 | 190 | 7.0 | 12.2 | 0.00 | 0.00 | 0.00 | 30 | 1007.1 |
| 20260509194533 | 95 | 190 | 5.2 | 12.2 | 0.00 | 0.00 | 0.00 | 30 | 1007.0 |
| 20260509194033 | 96 | 190 | 4.3 | 8.7 | 0.00 | 0.00 | 0.00 | 29 | 1007.0 |
| 20260509193532 | 96 | 190 | 3.5 | 14.8 | 0.00 | 0.00 | 0.00 | 30 | 1007.1 |
| 20260509193059 | 95 | 190 | 7.0 | 14.8 | 0.00 | 0.00 | 0.00 | 30 | 1007.1 |
| 20260509193032 | 95 | 190 | 4.3 | 14.8 | 0.00 | 0.00 | 0.00 | 30 | 1007.2 |
| 20260509192529 | 95 | 190 | 4.3 | 10.4 | 0.00 | 0.00 | 0.00 | 30 | 1007.3 |
| 20260509192028 | 95 | 190 | 2.6 | 7.0 | 0.00 | 0.00 | 0.00 | 30 | 1007.5 |
| 20260509191557 | 95 | 190 | 2.6 | 8.7 | 0.00 | 0.00 | 0.00 | 30 | 1007.6 |
| 20260509191530 | 95 | 190 | 2.6 | 8.7 | 0.00 | 0.00 | 0.00 | 30 | 1007.7 |
| 20260509191030 | 94 | 190 | 4.3 | 8.7 | 0.00 | 0.00 | 0.00 | 31 | 1007.8 |
| 20260509190526 | 95 | 190 | 3.5 | 7.8 | 0.00 | 0.00 | 0.00 | 31 | 1008.0 |
| 20260509190057 | 95 | 190 | 3.5 | 8.7 | 0.00 | 0.00 | 0.00 | 30 | 1008.0 |
| 20260509190026 | 95 | 190 | 1.7 | 7.8 | 0.00 | 0.00 | 0.00 | 31 | 1008.0 |
| 20260509185526 | 95 | 190 | 2.6 | 8.7 | 0.00 | 0.00 | 0.00 | 31 | 1008.1 |
| 20260509185026 | 94 | 190 | 4.3 | 8.7 | 0.00 | 0.00 | 0.00 | 31 | 1008.2 |
| 20260509184559 | 94 | 190 | 2.6 | 7.0 | 0.00 | 0.00 | 0.00 | 31 | 1008.2 |
| 20260509184530 | 94 | 190 | 0.9 | 7.0 | 0.00 | 0.00 | 0.00 | 31 | 1008.2 |
| 20260509184021 | 94 | 190 | 0.0 | 7.8 | 0.00 | 0.00 | 0.00 | 32 | 1008.4 |
| 20260509183521 | 94 | 190 | 2.6 | 7.8 | 0.00 | 0.00 | 0.00 | 31 | 1008.5 |
| 20260509183101 | 94 | 190 | 2.6 | 8.7 | 0.00 | 0.00 | 0.00 | 31 | 1008.5 |
| 20260509183021 | 94 | 190 | 2.6 | 6.1 | 0.00 | 0.00 | 0.00 | 32 | 1008.6 |
| 20260509182518 | 93 | 190 | 1.7 | 8.7 | 0.00 | 0.00 | 0.00 | 33 | 1008.7 |
| 20260509182019 | 93 | 190 | 2.6 | 8.7 | 0.00 | 0.00 | 0.00 | 32 | 1008.9 |
| 20260509181601 | 93 | 190 | 0.9 | 8.7 | 0.00 | 0.00 | 0.00 | 32 | 1008.8 |
| 20260509181517 | 93 | 190 | 0.0 | 8.7 | 0.00 | 0.00 | 0.00 | 32 | 1009.0 |
| 20260509181016 | 92 | 190 | 1.7 | 8.7 | 0.00 | 0.00 | 0.00 | 33 | 1009.1 |
| 20260509180515 | 92 | 190 | 0.9 | 7.8 | 0.00 | 0.00 | 0.00 | 34 | 1009.1 |
| 20260509180018 | 92 | 190 | 0.9 | 7.8 | 0.00 | 0.00 | 0.00 | 34 | 1009.1 |
| 20260509175516 | 92 | 190 | 3.5 | 7.8 | 0.00 | 0.00 | 0.00 | 33 | 1009.2 |
| 20260509175015 | 92 | 190 | 3.5 | 5.2 | 0.00 | 0.00 | 0.00 | 33 | 1009.2 |
| 20260509174557 | 92 | 0 | 0.0 | 6.1 | 0.00 | 0.00 | 0.00 | 34 | 1009.1 |
| 20260509174516 | 91 | 190 | 0.0 | 6.1 | 0.00 | 0.00 | 0.00 | 34 | 1009.2 |
| 20260509174020 | 92 | 190 | 2.6 | 6.1 | 0.00 | 0.00 | 0.00 | 34 | 1009.3 |
| 20260509173515 | 92 | 190 | 0.0 | 6.1 | 0.00 | 0.00 | 0.00 | 34 | 1009.2 |
| 20260509173115 | 92 | 190 | 2.6 | 6.1 | 0.00 | 0.00 | 0.00 | 34 | 1009.3 |
| 20260509173057 | 92 | 190 | 1.7 | 6.1 | 0.00 | 0.00 | 0.00 | 34 | 1009.1 |
| 20260509172514 | 92 | 190 | 2.6 | 6.1 | 0.00 | 0.00 | 0.00 | 35 | 1009.3 |
| 20260509172013 | 92 | 190 | 0.0 | 4.3 | 0.00 | 0.00 | 0.00 | 36 | 1009.4 |
| 20260509171556 | 92 | 190 | 0.9 | 6.1 | 0.00 | 0.00 | 0.00 | 35 | 1009.3 |
| 20260509171512 | 92 | 190 | 0.9 | 6.1 | 0.00 | 0.00 | 0.00 | 35 | 1009.5 |
| 20260509171010 | 91 | 190 | 0.9 | 6.1 | 0.00 | 0.00 | 0.00 | 36 | 1009.6 |
| 20260509170510 | 91 | 190 | 0.9 | 5.2 | 0.00 | 0.00 | 0.00 | 37 | 1009.6 |
| 20260509170059 | 91 | 190 | 2.6 | 5.2 | 0.00 | 0.00 | 0.00 | 36 | 1009.5 |
| 20260509170010 | 91 | 190 | 2.6 | 5.2 | 0.00 | 0.00 | 0.00 | 36 | 1009.7 |
| 20260509165510 | 90 | 190 | 1.7 | 5.2 | 0.00 | 0.00 | 0.00 | 36 | 1009.8 |
| 20260509165008 | 90 | 190 | 0.9 | 3.5 | 0.00 | 0.00 | 0.00 | 37 | 1009.8 |
| 20260509164559 | 90 | 0 | 0.9 | 3.5 | 0.00 | 0.00 | 0.00 | 37 | 1009.6 |
| 20260509164507 | 90 | 190 | 0.0 | 3.5 | 0.00 | 0.00 | 0.00 | 37 | 1009.8 |
| 20260509164006 | 89 | 190 | 0.0 | 3.5 | 0.00 | 0.00 | 0.00 | 38 | 1009.8 |
| 20260509163508 | 89 | 190 | 0.0 | 4.3 | 0.00 | 0.00 | 0.00 | 38 | 1009.9 |
| 20260509163059 | 89 | 190 | 1.7 | 5.2 | 0.00 | 0.00 | 0.00 | 37 | 1009.6 |
| 20260509163007 | 89 | 190 | 0.9 | 5.2 | 0.00 | 0.00 | 0.00 | 38 | 1010.0 |
| 20260509162504 | 89 | 190 | 0.9 | 4.3 | 0.00 | 0.00 | 0.00 | 38 | 1009.9 |
| 20260509162002 | 88 | 190 | 0.9 | 4.3 | 0.00 | 0.00 | 0.00 | 38 | 1009.9 |
| 20260509161608 | 88 | 0 | 0.9 | 4.3 | 0.00 | 0.00 | 0.00 | 38 | 1009.7 |
| 20260509161503 | 88 | 190 | 0.9 | 4.3 | 0.00 | 0.00 | 0.00 | 39 | 1010.0 |
| 20260509161002 | 88 | 190 | 0.0 | 3.5 | 0.00 | 0.00 | 0.00 | 39 | 1010.1 |
| 20260509160501 | 87 | 190 | 0.0 | 2.6 | 0.00 | 0.00 | 0.00 | 39 | 1010.1 |
| 20260509160105 | 87 | 190 | 0.9 | 2.6 | 0.00 | 0.00 | 0.00 | 38 | 1009.8 |
| 20260509160101 | 87 | 190 | 0.0 | 2.6 | 0.00 | 0.00 | 0.00 | 38 | 1010.2 |
| 20260509155559 | 87 | 190 | 0.0 | 2.6 | 0.00 | 0.00 | 0.00 | 39 | 1010.2 |
| 20260509155058 | 87 | 190 | 0.0 | 0.0 | 0.00 | 0.00 | 0.00 | 40 | 1010.2 |
| 20260509154618 | 86 | 0 | 0.0 | 2.6 | 0.00 | 0.00 | 0.00 | 39 | 1009.9 |
| 20260509154558 | 86 | 190 | 0.0 | 1.7 | 0.00 | 0.00 | 0.00 | 40 | 1010.3 |
| 20260509154059 | 86 | 190 | 0.0 | 2.6 | 0.00 | 0.00 | 0.00 | 40 | 1010.3 |
| 20260509153556 | 85 | 190 | 0.0 | 4.3 | 0.00 | 0.00 | 0.00 | 40 | 1010.3 |
| 20260509153110 | 85 | 190 | 0.0 | 3.5 | 0.00 | 0.00 | 0.00 | 40 | 1010.1 |
| 20260509153054 | 85 | 190 | 0.0 | 3.5 | 0.00 | 0.00 | 0.00 | 40 | 1010.5 |
| 20260509152553 | 85 | 190 | 0.9 | 3.5 | 0.00 | 0.00 | 0.00 | 42 | 1010.6 |
| 20260509152053 | 85 | 190 | 0.9 | 3.5 | 0.00 | 0.00 | 0.00 | 42 | 1010.5 |
| 20260509151611 | 85 | 190 | 1.7 | 3.5 | 0.00 | 0.00 | 0.00 | 42 | 1010.2 |
| 20260509151559 | 84 | 190 | 0.9 | 3.5 | 0.00 | 0.00 | 0.00 | 43 | 1010.5 |
| 20260509151051 | 85 | 190 | 0.0 | 0.0 | 0.00 | 0.00 | 0.00 | 44 | 1010.5 |
| 20260509150551 | 84 | 190 | 0.0 | 3.5 | 0.00 | 0.00 | 0.00 | 44 | 1010.6 |
| 20260509150105 | 84 | 190 | 0.9 | 3.5 | 0.00 | 0.00 | 0.00 | 44 | 1010.3 |
| 20260509150052 | 84 | 190 | 0.9 | 3.5 | 0.00 | 0.00 | 0.00 | 45 | 1010.5 |
| 20260509145550 | 83 | 190 | 0.9 | 3.5 | 0.00 | 0.00 | 0.00 | 46 | 1010.5 |
| 20260509145051 | 83 | 190 | 0.0 | 1.7 | 0.00 | 0.00 | 0.00 | 47 | 1010.5 |
| 20260509144601 | 82 | 0 | 0.0 | 2.6 | 0.00 | 0.00 | 0.00 | 47 | 1010.1 |
| 20260509144550 | 82 | 190 | 0.0 | 2.6 | 0.00 | 0.00 | 0.00 | 48 | 1010.5 |
| 20260509144050 | 82 | 190 | 0.0 | 2.6 | 0.00 | 0.00 | 0.00 | 49 | 1010.5 |
| 20260509143552 | 81 | 190 | 0.0 | 1.7 | 0.00 | 0.00 | 0.00 | 49 | 1010.5 |
| 20260509143058 | 81 | 0 | 0.0 | 1.7 | 0.00 | 0.00 | 0.00 | 50 | 1010.3 |
| 20260509143051 | 80 | 190 | 0.0 | 1.7 | 0.00 | 0.00 | 0.00 | 51 | 1010.5 |
| 20260509142549 | 80 | 190 | 0.0 | 0.0 | 0.00 | 0.00 | 0.00 | 52 | 1010.6 |
| 20260509142050 | 79 | 190 | 0.0 | 0.0 | 0.00 | 0.00 | 0.00 | 52 | 1010.6 |
| 20260509141600 | 79 | 0 | 0.0 | 0.9 | 0.00 | 0.00 | 0.00 | 52 | 1010.1 |
| 20260509141549 | 79 | 190 | 0.0 | 0.0 | 0.00 | 0.00 | 0.00 | 52 | 1010.6 |
| 20260509141049 | 79 | 190 | 0.0 | 1.7 | 0.00 | 0.00 | 0.00 | 53 | 1010.6 |
| 20260509140548 | 78 | 190 | 0.0 | 1.7 | 0.00 | 0.00 | 0.00 | 54 | 1010.7 |
| 20260509140105 | 78 | 0 | 0.0 | 2.6 | 0.00 | 0.00 | 0.00 | 54 | 1010.1 |
| 20260509140049 | 78 | 190 | 0.0 | 1.7 | 0.00 | 0.00 | 0.00 | 54 | 1010.6 |
| 20260509135548 | 77 | 190 | 0.0 | 2.6 | 0.00 | 0.00 | 0.00 | 55 | 1010.6 |
| 20260509135047 | 77 | 190 | 0.9 | 2.6 | 0.00 | 0.00 | 0.00 | 55 | 1010.6 |
| 20260509134603 | 77 | 0 | 0.0 | 0.0 | 0.00 | 0.00 | 0.00 | 55 | 1010.1 |
| 20260509134548 | 77 | 190 | 0.0 | 0.0 | 0.00 | 0.00 | 0.00 | 56 | 1010.6 |
| 20260509134047 | 76 | 190 | 0.0 | 0.0 | 0.00 | 0.00 | 0.00 | 56 | 1010.5 |
| 20260509133547 | 76 | 190 | 0.0 | 0.0 | 0.00 | 0.00 | 0.00 | 57 | 1010.4 |
| 20260509133058 | 75 | 0 | 0.0 | 0.0 | 0.00 | 0.00 | 0.00 | 58 | 1009.9 |
| 20260509133046 | 75 | 190 | 0.0 | 0.0 | 0.00 | 0.00 | 0.00 | 58 | 1010.4 |
| 20260509132545 | 74 | 190 | 0.0 | 0.0 | 0.00 | 0.00 | 0.00 | 59 | 1010.3 |
| 20260509132044 | 74 | 190 | 0.0 | 0.0 | 0.00 | 0.00 | 0.00 | 59 | 1010.3 |
| 20260509131557 | 74 | 0 | 0.0 | 1.7 | 0.00 | 0.00 | 0.00 | 59 | 1009.6 |
| 20260509131549 | 73 | 190 | 0.0 | 1.7 | 0.00 | 0.00 | 0.00 | 59 | 1010.2 |
| 20260509131043 | 73 | 190 | 0.0 | 1.7 | 0.00 | 0.00 | 0.00 | 59 | 1010.2 |
| 20260509130543 | 73 | 190 | 0.0 | 1.7 | 0.00 | 0.00 | 0.00 | 59 | 1010.1 |
| 20260509130100 | 73 | 0 | 0.0 | 0.0 | 0.00 | 0.00 | 0.00 | 59 | 1009.6 |
| 20260509130056 | 73 | 190 | 0.0 | 0.0 | 0.00 | 0.00 | 0.00 | 60 | 1010.0 |
| 20260509125540 | 73 | 190 | 0.0 | 0.0 | 0.00 | 0.00 | 0.00 | 60 | 1010.0 |
| 20260509125041 | 73 | 190 | 0.0 | 0.0 | 0.00 | 0.00 | 0.00 | 61 | 1009.9 |
| 20260509124604 | 73 | 0 | 0.0 | 0.9 | 0.00 | 0.00 | 0.00 | 61 | 1009.4 |
| 20260509124543 | 73 | 190 | 0.0 | 0.9 | 0.00 | 0.00 | 0.00 | 61 | 1009.8 |
| 20260509124040 | 73 | 190 | 0.0 | 0.0 | 0.00 | 0.00 | 0.00 | 60 | 1009.8 |
| 20260509123540 | 73 | 190 | 0.0 | 0.0 | 0.00 | 0.00 | 0.00 | 60 | 1009.8 |
| 20260509123057 | 73 | 0 | 0.0 | 1.7 | 0.00 | 0.00 | 0.00 | 59 | 1009.3 |
| 20260509123042 | 73 | 190 | 0.0 | 1.7 | 0.00 | 0.00 | 0.00 | 60 | 1009.7 |
| 20260509122539 | 73 | 190 | 0.0 | 1.7 | 0.00 | 0.00 | 0.00 | 60 | 1009.6 |
| 20260509122039 | 73 | 190 | 0.0 | 0.0 | 0.00 | 0.00 | 0.00 | 60 | 1009.5 |
| 20260509121611 | 73 | 0 | 0.0 | 0.0 | 0.00 | 0.00 | 0.00 | 59 | 1009.0 |
| 20260509121537 | 73 | 190 | 0.0 | 0.0 | 0.00 | 0.00 | 0.00 | 60 | 1009.3 |
| 20260509121037 | 73 | 190 | 0.0 | 0.0 | 0.00 | 0.00 | 0.00 | 60 | 1009.2 |
| 20260509120536 | 73 | 190 | 0.0 | 0.0 | 0.00 | 0.00 | 0.00 | 60 | 1009.1 |
| 20260509120112 | 73 | 0 | 0.0 | 1.7 | 0.00 | 0.00 | 0.00 | 59 | 1008.7 |
| 20260509120036 | 73 | 190 | 0.0 | 1.7 | 0.00 | 0.00 | 0.00 | 59 | 1009.1 |
| 20260509115534 | 74 | 190 | 0.0 | 1.7 | 0.00 | 0.00 | 0.00 | 59 | 1009.1 |
| 20260509115033 | 74 | 190 | 0.0 | 0.0 | 0.00 | 0.00 | 0.00 | 59 | 1009.2 |
| 20260509114559 | 74 | 0 | 0.0 | 0.0 | 0.00 | 0.00 | 0.00 | 58 | 1008.7 |
| 20260509114533 | 74 | 190 | 0.0 | 0.0 | 0.00 | 0.00 | 0.00 | 59 | 1009.0 |
| 20260509114032 | 74 | 190 | 0.0 | 0.0 | 0.00 | 0.00 | 0.00 | 59 | 1009.0 |
| 20260509113532 | 74 | 190 | 0.0 | 0.0 | 0.00 | 0.00 | 0.00 | 59 | 1008.9 |
| 20260509113059 | 74 | 0 | 0.0 | 0.0 | 0.00 | 0.00 | 0.00 | 58 | 1008.5 |
| 20260509113031 | 74 | 190 | 0.0 | 0.0 | 0.00 | 0.00 | 0.00 | 58 | 1008.9 |
| 20260509112530 | 74 | 190 | 0.0 | 0.0 | 0.00 | 0.00 | 0.00 | 58 | 1008.8 |
| 20260509112030 | 75 | 190 | 0.0 | 0.0 | 0.00 | 0.00 | 0.00 | 58 | 1008.7 |
| 20260509111559 | 75 | 0 | 0.0 | 0.0 | 0.00 | 0.00 | 0.00 | 56 | 1008.2 |
| 20260509111531 | 75 | 190 | 0.0 | 0.0 | 0.00 | 0.00 | 0.00 | 57 | 1008.7 |
| 20260509111030 | 75 | 190 | 0.0 | 0.0 | 0.00 | 0.00 | 0.00 | 57 | 1008.7 |
| 20260509110529 | 74 | 190 | 0.0 | 0.0 | 0.00 | 0.00 | 0.00 | 58 | 1008.6 |
| 20260509110029 | 74 | 190 | 0.0 | 0.9 | 0.00 | 0.00 | 0.00 | 57 | 1008.6 |
| 20260509105528 | 74 | 190 | 0.0 | 1.7 | 0.00 | 0.00 | 0.00 | 57 | 1008.6 |
| 20260509105028 | 75 | 190 | 0.0 | 1.7 | 0.00 | 0.00 | 0.00 | 56 | 1008.5 |
| 20260509104600 | 75 | 0 | 0.0 | 1.7 | 0.00 | 0.00 | 0.00 | 55 | 1008.1 |
| 20260509104527 | 75 | 190 | 0.0 | 0.9 | 0.00 | 0.00 | 0.00 | 56 | 1008.5 |
| 20260509104026 | 75 | 190 | 0.0 | 2.6 | 0.00 | 0.00 | 0.00 | 56 | 1008.5 |
| 20260509103525 | 75 | 190 | 0.9 | 2.6 | 0.00 | 0.00 | 0.00 | 55 | 1008.5 |
| 20260509103104 | 76 | 190 | 0.0 | 2.6 | 0.00 | 0.00 | 0.00 | 55 | 1008.1 |
| 20260509103023 | 76 | 190 | 0.0 | 2.6 | 0.00 | 0.00 | 0.00 | 55 | 1008.4 |
| 20260509102522 | 77 | 190 | 0.9 | 2.6 | 0.00 | 0.00 | 0.00 | 56 | 1008.5 |
| 20260509102021 | 77 | 190 | 0.0 | 0.0 | 0.00 | 0.00 | 0.00 | 55 | 1008.5 |
| 20260509101603 | 77 | 0 | 0.0 | 0.0 | 0.00 | 0.00 | 0.00 | 55 | 1008.3 |
| 20260509101520 | 77 | 190 | 0.0 | 0.0 | 0.00 | 0.00 | 0.00 | 55 | 1008.6 |
| 20260509101019 | 77 | 190 | 0.0 | 0.0 | 0.00 | 0.00 | 0.00 | 54 | 1008.6 |
| 20260509100517 | 78 | 190 | 0.0 | 0.0 | 0.00 | 0.00 | 0.00 | 54 | 1008.6 |
| 20260509100057 | 78 | 0 | 0.0 | 0.0 | 0.00 | 0.00 | 0.00 | 53 | 1008.3 |
| 20260509100021 | 78 | 190 | 0.0 | 0.0 | 0.00 | 0.00 | 0.00 | 53 | 1008.6 |
| 20260509095517 | 78 | 190 | 0.0 | 0.0 | 0.00 | 0.00 | 0.00 | 53 | 1008.7 |
| 20260509095019 | 78 | 190 | 0.0 | 0.0 | 0.00 | 0.00 | 0.00 | 53 | 1008.7 |
| 20260509094601 | 78 | 0 | 0.0 | 0.0 | 0.00 | 0.00 | 0.00 | 53 | 1008.5 |
| 20260509094515 | 78 | 190 | 0.0 | 0.0 | 0.00 | 0.00 | 0.00 | 53 | 1008.8 |
| 20260509094015 | 78 | 190 | 0.0 | 0.0 | 0.00 | 0.00 | 0.00 | 53 | 1008.7 |
| 20260509093515 | 78 | 190 | 0.0 | 0.0 | 0.00 | 0.00 | 0.00 | 52 | 1008.7 |
| 20260509093058 | 79 | 0 | 0.0 | 0.0 | 0.00 | 0.00 | 0.00 | 52 | 1008.5 |
| 20260509093014 | 78 | 190 | 0.0 | 0.0 | 0.00 | 0.00 | 0.00 | 53 | 1008.7 |
| 20260509092520 | 79 | 190 | 0.0 | 0.0 | 0.00 | 0.00 | 0.00 | 52 | 1008.7 |
| 20260509092013 | 79 | 190 | 0.0 | 0.0 | 0.00 | 0.00 | 0.00 | 52 | 1008.7 |
| 20260509091632 | 79 | 0 | 0.0 | 0.0 | 0.00 | 0.00 | 0.00 | 52 | 1008.6 |
| 20260509091513 | 79 | 190 | 0.0 | 0.0 | 0.00 | 0.00 | 0.00 | 52 | 1008.7 |
| 20260509091014 | 79 | 190 | 0.0 | 0.0 | 0.00 | 0.00 | 0.00 | 52 | 1008.7 |
| 20260509090511 | 79 | 190 | 0.0 | 0.0 | 0.00 | 0.00 | 0.00 | 51 | 1008.7 |
| 20260509090057 | 79 | 0 | 0.0 | 0.0 | 0.00 | 0.00 | 0.00 | 51 | 1008.5 |
| 20260509090012 | 79 | 190 | 0.0 | 0.0 | 0.00 | 0.00 | 0.00 | 51 | 1008.8 |
| 20260509085511 | 79 | 190 | 0.0 | 0.0 | 0.00 | 0.00 | 0.00 | 51 | 1008.7 |
| 20260509085010 | 79 | 190 | 0.0 | 0.0 | 0.00 | 0.00 | 0.00 | 51 | 1008.8 |
| 20260509084557 | 79 | 0 | 0.0 | 0.0 | 0.00 | 0.00 | 0.00 | 50 | 1008.8 |
| 20260509084517 | 79 | 190 | 0.0 | 0.0 | 0.00 | 0.00 | 0.00 | 51 | 1008.9 |
| 20260509084013 | 79 | 190 | 0.0 | 0.0 | 0.00 | 0.00 | 0.00 | 50 | 1008.9 |
| 20260509083507 | 79 | 190 | 0.0 | 0.0 | 0.00 | 0.00 | 0.00 | 50 | 1008.9 |
| 20260509083100 | 80 | 0 | 0.0 | 0.0 | 0.00 | 0.00 | 0.00 | 50 | 1008.8 |
| 20260509083015 | 80 | 190 | 0.0 | 0.0 | 0.00 | 0.00 | 0.00 | 50 | 1009.0 |
| 20260509082509 | 80 | 190 | 0.0 | 0.0 | 0.00 | 0.00 | 0.00 | 50 | 1009.0 |
| 20260509082005 | 80 | 190 | 0.0 | 2.6 | 0.00 | 0.00 | 0.00 | 49 | 1009.0 |
| 20260509081558 | 80 | 0 | 0.9 | 2.6 | 0.00 | 0.00 | 0.00 | 49 | 1008.9 |
| 20260509081511 | 80 | 190 | 0.9 | 2.6 | 0.00 | 0.00 | 0.00 | 49 | 1009.1 |
| 20260509081004 | 80 | 190 | 0.9 | 2.6 | 0.00 | 0.00 | 0.00 | 49 | 1009.1 |
| 20260509080504 | 80 | 190 | 0.0 | 3.5 | 0.00 | 0.00 | 0.00 | 49 | 1009.2 |
| 20260509080107 | 80 | 0 | 0.9 | 3.5 | 0.00 | 0.00 | 0.00 | 48 | 1009.0 |
| 20260509080003 | 80 | 190 | 0.9 | 3.5 | 0.00 | 0.00 | 0.00 | 49 | 1009.1 |
| 20260509075502 | 81 | 190 | 0.0 | 3.5 | 0.00 | 0.00 | 0.00 | 48 | 1009.1 |
| 20260509075002 | 81 | 190 | 1.7 | 3.5 | 0.00 | 0.00 | 0.00 | 48 | 1009.1 |
| 20260509074601 | 81 | 190 | 1.7 | 2.6 | 0.00 | 0.00 | 0.00 | 48 | 1009.1 |
| 20260509074059 | 81 | 190 | 0.0 | 1.7 | 0.00 | 0.00 | 0.00 | 48 | 1009.2 |
| 20260509073558 | 81 | 190 | 0.0 | 1.7 | 0.00 | 0.00 | 0.00 | 48 | 1009.1 |
| 20260509073141 | 82 | 190 | 0.0 | 2.6 | 0.00 | 0.00 | 0.00 | 47 | 1009.1 |
| 20260509073058 | 82 | 190 | 0.0 | 2.6 | 0.00 | 0.00 | 0.00 | 48 | 1009.2 |
| 20260509072557 | 82 | 190 | 0.0 | 2.6 | 0.00 | 0.00 | 0.00 | 48 | 1009.2 |
| 20260509072056 | 82 | 190 | 0.0 | 3.5 | 0.00 | 0.00 | 0.00 | 48 | 1009.3 |
| 20260509071559 | 82 | 190 | 0.9 | 4.3 | 0.00 | 0.00 | 0.00 | 47 | 1009.2 |
| 20260509071053 | 82 | 190 | 0.9 | 4.3 | 0.00 | 0.00 | 0.00 | 47 | 1009.4 |
| 20260509070552 | 82 | 190 | 0.0 | 2.6 | 0.00 | 0.00 | 0.00 | 47 | 1009.6 |
| 20260509070059 | 82 | 190 | 0.0 | 1.7 | 0.00 | 0.00 | 0.00 | 47 | 1009.7 |
| 20260509065551 | 82 | 190 | 0.0 | 4.3 | 0.00 | 0.00 | 0.00 | 47 | 1009.7 |
| 20260509065051 | 82 | 190 | 0.9 | 3.5 | 0.00 | 0.00 | 0.00 | 47 | 1009.7 |
| 20260509064558 | 83 | 0 | 0.0 | 2.6 | 0.00 | 0.00 | 0.00 | 46 | 1009.6 |
| 20260509064553 | 83 | 190 | 0.0 | 2.6 | 0.00 | 0.00 | 0.00 | 47 | 1009.8 |
| 20260509064053 | 83 | 190 | 0.0 | 0.9 | 0.00 | 0.00 | 0.00 | 46 | 1009.7 |
| 20260509063553 | 83 | 190 | 0.0 | 1.7 | 0.00 | 0.00 | 0.00 | 46 | 1009.8 |
| 20260509063059 | 83 | 0 | 0.0 | 2.6 | 0.00 | 0.00 | 0.00 | 45 | 1009.6 |
| 20260509063048 | 83 | 190 | 0.0 | 1.7 | 0.00 | 0.00 | 0.00 | 45 | 1009.7 |
| 20260509062547 | 83 | 190 | 0.0 | 2.6 | 0.00 | 0.00 | 0.00 | 45 | 1009.7 |
| 20260509062046 | 84 | 190 | 0.0 | 2.6 | 0.00 | 0.00 | 0.00 | 44 | 1009.8 |
| 20260509061602 | 84 | 0 | 0.0 | 2.6 | 0.00 | 0.00 | 0.00 | 43 | 1009.7 |
| 20260509061558 | 84 | 190 | 0.0 | 2.6 | 0.00 | 0.00 | 0.00 | 44 | 1009.9 |
| 20260509061045 | 84 | 190 | 0.0 | 3.5 | 0.00 | 0.00 | 0.00 | 44 | 1009.9 |
| 20260509060544 | 84 | 190 | 0.0 | 3.5 | 0.00 | 0.00 | 0.00 | 44 | 1009.8 |
| 20260509060105 | 84 | 190 | 0.0 | 2.6 | 0.00 | 0.00 | 0.00 | 43 | 1009.6 |
| 20260509060059 | 84 | 190 | 0.0 | 2.6 | 0.00 | 0.00 | 0.00 | 43 | 1009.7 |
| 20260509055542 | 84 | 190 | 0.0 | 0.0 | 0.00 | 0.00 | 0.00 | 43 | 1009.7 |
| 20260509055042 | 84 | 190 | 0.0 | 3.5 | 0.00 | 0.00 | 0.00 | 43 | 1009.7 |
| 20260509054613 | 84 | 0 | 0.0 | 3.5 | 0.00 | 0.00 | 0.00 | 42 | 1009.7 |
| 20260509054548 | 84 | 190 | 0.0 | 3.5 | 0.00 | 0.00 | 0.00 | 42 | 1009.8 |
| 20260509054042 | 84 | 190 | 0.0 | 3.5 | 0.00 | 0.00 | 0.00 | 42 | 1009.8 |
| 20260509053543 | 84 | 190 | 0.0 | 3.5 | 0.00 | 0.00 | 0.00 | 43 | 1009.8 |
| 20260509053104 | 85 | 0 | 0.9 | 4.3 | 0.00 | 0.00 | 0.00 | 42 | 1009.6 |
| 20260509053042 | 85 | 190 | 0.0 | 4.3 | 0.00 | 0.00 | 0.00 | 43 | 1009.8 |
| 20260509052544 | 85 | 190 | 0.9 | 4.3 | 0.00 | 0.00 | 0.00 | 43 | 1009.7 |
| 20260509052041 | 85 | 190 | 0.9 | 7.8 | 0.00 | 0.00 | 0.00 | 43 | 1009.7 |
| 20260509051559 | 85 | 190 | 0.0 | 5.2 | 0.00 | 0.00 | 0.00 | 42 | 1009.5 |
| 20260509051540 | 85 | 190 | 0.9 | 7.8 | 0.00 | 0.00 | 0.00 | 43 | 1009.7 |
| 20260509051042 | 85 | 190 | 0.9 | 5.2 | 0.00 | 0.00 | 0.00 | 43 | 1009.7 |
| 20260509050541 | 85 | 190 | 0.9 | 5.2 | 0.00 | 0.00 | 0.00 | 43 | 1009.7 |
| 20260509050059 | 85 | 190 | 0.0 | 2.6 | 0.00 | 0.00 | 0.00 | 42 | 1009.4 |
| 20260509045540 | 85 | 190 | 0.0 | 5.2 | 0.00 | 0.00 | 0.00 | 42 | 1009.6 |
| 20260509045040 | 85 | 190 | 0.0 | 6.1 | 0.00 | 0.00 | 0.00 | 42 | 1009.4 |
| 20260509044558 | 85 | 190 | 0.9 | 6.1 | 0.00 | 0.00 | 0.00 | 41 | 1009.0 |
| 20260509044553 | 85 | 190 | 0.9 | 6.1 | 0.00 | 0.00 | 0.00 | 42 | 1009.2 |
| 20260509044041 | 84 | 190 | 0.0 | 2.6 | 0.00 | 0.00 | 0.00 | 42 | 1009.1 |
| 20260509043540 | 84 | 190 | 0.0 | 2.6 | 0.00 | 0.00 | 0.00 | 41 | 1008.9 |
| 20260509043058 | 84 | 190 | 0.0 | 4.3 | 0.00 | 0.00 | 0.00 | 40 | 1008.7 |
| 20260509043040 | 84 | 190 | 0.0 | 4.3 | 0.00 | 0.00 | 0.00 | 40 | 1008.9 |
| 20260509042539 | 84 | 190 | 1.7 | 4.3 | 0.00 | 0.00 | 0.00 | 40 | 1008.8 |
| 20260509042038 | 84 | 190 | 0.0 | 4.3 | 0.00 | 0.00 | 0.00 | 40 | 1008.6 |
| 20260509041556 | 85 | 0 | 0.0 | 2.6 | 0.00 | 0.00 | 0.00 | 38 | 1008.4 |
| 20260509041538 | 85 | 190 | 0.0 | 2.6 | 0.00 | 0.00 | 0.00 | 38 | 1008.5 |
| 20260509041039 | 85 | 190 | 0.9 | 2.6 | 0.00 | 0.00 | 0.00 | 39 | 1008.4 |
| 20260509040538 | 85 | 190 | 0.9 | 2.6 | 0.00 | 0.00 | 0.00 | 38 | 1008.3 |
| 20260509040125 | 86 | 0 | 0.0 | 0.0 | 0.00 | 0.00 | 0.00 | 38 | 1008.1 |
| 20260509040040 | 86 | 190 | 0.0 | 0.0 | 0.00 | 0.00 | 0.00 | 38 | 1008.2 |
| 20260509035540 | 86 | 190 | 0.0 | 0.0 | 0.00 | 0.00 | 0.00 | 39 | 1008.1 |
| 20260509035038 | 86 | 190 | 0.0 | 0.0 | 0.00 | 0.00 | 0.00 | 39 | 1008.0 |
| 20260509034601 | 86 | 0 | 0.0 | 0.0 | 0.00 | 0.00 | 0.00 | 38 | 1007.8 |
| 20260509034537 | 86 | 190 | 0.0 | 0.0 | 0.00 | 0.00 | 0.00 | 39 | 1007.9 |
| 20260509034037 | 86 | 190 | 0.0 | 0.0 | 0.00 | 0.00 | 0.00 | 39 | 1007.8 |
| 20260509033537 | 86 | 190 | 0.0 | 0.0 | 0.00 | 0.00 | 0.00 | 39 | 1007.8 |
| 20260509033058 | 87 | 0 | 0.0 | 0.9 | 0.00 | 0.00 | 0.00 | 38 | 1007.6 |
| 20260509033040 | 86 | 190 | 0.0 | 0.9 | 0.00 | 0.00 | 0.00 | 38 | 1007.6 |
| 20260509032538 | 86 | 190 | 0.0 | 0.9 | 0.00 | 0.00 | 0.00 | 38 | 1007.5 |
| 20260509032037 | 87 | 190 | 0.0 | 0.0 | 0.00 | 0.00 | 0.00 | 39 | 1007.3 |
| 20260509031602 | 87 | 0 | 0.0 | 0.0 | 0.00 | 0.00 | 0.00 | 38 | 1007.3 |
| 20260509031536 | 87 | 190 | 0.0 | 0.0 | 0.00 | 0.00 | 0.00 | 38 | 1007.2 |
| 20260509031036 | 87 | 190 | 0.0 | 0.0 | 0.00 | 0.00 | 0.00 | 39 | 1007.1 |
| 20260509030536 | 87 | 190 | 0.0 | 0.0 | 0.00 | 0.00 | 0.00 | 39 | 1006.9 |
| 20260509030100 | 87 | 0 | 0.0 | 2.6 | 0.00 | 0.00 | 0.00 | 40 | 1006.8 |
| 20260509030039 | 87 | 190 | 0.0 | 2.6 | 0.00 | 0.00 | 0.00 | 40 | 1006.8 |
| 20260509025535 | 88 | 190 | 0.0 | 2.6 | 0.00 | 0.00 | 0.00 | 40 | 1006.7 |
| 20260509025035 | 88 | 190 | 0.0 | 2.6 | 0.00 | 0.00 | 0.00 | 38 | 1006.6 |
| 20260509024602 | 88 | 0 | 0.0 | 2.6 | 0.00 | 0.00 | 0.00 | 37 | 1006.4 |
| 20260509024536 | 88 | 190 | 0.0 | 2.6 | 0.00 | 0.00 | 0.00 | 37 | 1006.4 |
| 20260509024036 | 88 | 190 | 0.0 | 0.0 | 0.00 | 0.00 | 0.00 | 37 | 1006.3 |
| 20260509023535 | 89 | 190 | 0.0 | 1.7 | 0.00 | 0.00 | 0.00 | 36 | 1006.2 |
| 20260509023058 | 89 | 0 | 0.0 | 4.3 | 0.00 | 0.00 | 0.00 | 36 | 1006.0 |
| 20260509023039 | 89 | 190 | 0.0 | 4.3 | 0.00 | 0.00 | 0.00 | 36 | 1006.0 |
| 20260509022535 | 89 | 190 | 1.7 | 4.3 | 0.00 | 0.00 | 0.00 | 36 | 1005.9 |
| 20260509022035 | 90 | 190 | 0.9 | 3.5 | 0.00 | 0.00 | 0.00 | 33 | 1005.7 |
| 20260509021559 | 90 | 190 | 0.0 | 3.5 | 0.00 | 0.00 | 0.00 | 33 | 1005.6 |
| 20260509021535 | 90 | 190 | 0.0 | 3.5 | 0.00 | 0.00 | 0.00 | 33 | 1005.6 |
| 20260509021035 | 90 | 190 | 0.9 | 3.5 | 0.00 | 0.00 | 0.00 | 33 | 1005.5 |
| 20260509020534 | 90 | 190 | 0.0 | 1.7 | 0.00 | 0.00 | 0.00 | 34 | 1005.3 |
| 20260509020058 | 91 | 190 | 0.0 | 2.6 | 0.00 | 0.00 | 0.00 | 33 | 1005.4 |
| 20260509020034 | 91 | 190 | 0.0 | 2.6 | 0.00 | 0.00 | 0.00 | 34 | 1005.4 |
| 20260509015534 | 91 | 190 | 0.9 | 2.6 | 0.00 | 0.00 | 0.00 | 34 | 1005.2 |
| 20260509015034 | 91 | 190 | 0.0 | 1.7 | 0.00 | 0.00 | 0.00 | 32 | 1005.1 |
| 20260509014556 | 91 | 0 | 0.0 | 0.0 | 0.00 | 0.00 | 0.00 | 33 | 1005.2 |
| 20260509014534 | 91 | 190 | 0.0 | 0.0 | 0.00 | 0.00 | 0.00 | 33 | 1005.0 |
| 20260509014033 | 91 | 190 | 0.0 | 0.0 | 0.00 | 0.00 | 0.00 | 33 | 1004.9 |
| 20260509013533 | 91 | 190 | 0.0 | 2.6 | 0.00 | 0.00 | 0.00 | 33 | 1004.9 |
| 20260509013059 | 91 | 0 | 0.9 | 2.6 | 0.00 | 0.00 | 0.00 | 33 | 1005.0 |
| 20260509013037 | 91 | 190 | 0.9 | 2.6 | 0.00 | 0.00 | 0.00 | 34 | 1004.8 |
| 20260509012533 | 92 | 190 | 0.0 | 1.7 | 0.00 | 0.00 | 0.00 | 34 | 1004.7 |
| 20260509012032 | 92 | 190 | 0.0 | 3.5 | 0.00 | 0.00 | 0.00 | 34 | 1004.6 |
| 20260509011606 | 92 | 190 | 0.9 | 4.3 | 0.00 | 0.00 | 0.00 | 32 | 1004.8 |
| 20260509011532 | 92 | 190 | 0.9 | 4.3 | 0.00 | 0.00 | 0.00 | 33 | 1004.6 |
| 20260509011032 | 92 | 190 | 0.0 | 4.3 | 0.00 | 0.00 | 0.00 | 33 | 1004.5 |
| 20260509010531 | 92 | 190 | 0.9 | 5.2 | 0.00 | 0.00 | 0.00 | 33 | 1004.3 |
| 20260509010058 | 93 | 190 | 1.7 | 7.0 | 0.00 | 0.00 | 0.00 | 33 | 1004.5 |
| 20260509010032 | 92 | 190 | 2.6 | 5.2 | 0.00 | 0.00 | 0.00 | 33 | 1004.4 |
| 20260509005532 | 93 | 190 | 2.6 | 7.8 | 0.00 | 0.00 | 0.00 | 33 | 1004.2 |
| 20260509005031 | 94 | 190 | 2.6 | 8.7 | 0.00 | 0.00 | 0.00 | 31 | 1004.1 |
| 20260509004611 | 95 | 190 | 4.3 | 10.4 | 0.00 | 0.00 | 0.00 | 28 | 1004.2 |
| 20260509004537 | 95 | 190 | 3.5 | 10.4 | 0.00 | 0.00 | 0.00 | 27 | 1004.0 |
| 20260509004031 | 95 | 190 | 3.5 | 11.3 | 0.00 | 0.00 | 0.00 | 27 | 1003.7 |
| 20260509003530 | 96 | 190 | 3.5 | 11.3 | 0.00 | 0.00 | 0.00 | 27 | 1003.5 |
| 20260509003058 | 96 | 190 | 3.5 | 9.6 | 0.00 | 0.00 | 0.00 | 26 | 1003.6 |
| 20260509003031 | 96 | 190 | 2.6 | 9.6 | 0.00 | 0.00 | 0.00 | 26 | 1003.4 |
| 20260509002530 | 96 | 190 | 3.5 | 10.4 | 0.00 | 0.00 | 0.00 | 26 | 1003.3 |
| 20260509002029 | 96 | 190 | 2.6 | 10.4 | 0.00 | 0.00 | 0.00 | 26 | 1003.1 |
| 20260509001559 | 97 | 190 | 3.5 | 7.8 | 0.00 | 0.00 | 0.00 | 25 | 1003.2 |
| 20260509001529 | 97 | 190 | 3.5 | 7.8 | 0.00 | 0.00 | 0.00 | 25 | 1002.9 |
| 20260509001029 | 97 | 190 | 1.7 | 7.8 | 0.00 | 0.00 | 0.00 | 26 | 1002.8 |
| 20260509000529 | 97 | 190 | 2.6 | 7.0 | 0.00 | 0.00 | 0.00 | 26 | 1002.7 |
| 20260509000059 | 98 | 190 | 2.6 | 8.7 | 0.00 | 0.00 | 0.00 | 25 | 1003.0 |
| 20260509000036 | 98 | 190 | 2.6 | 7.8 | 0.00 | 0.00 | 0.00 | 26 | 1002.6 |
| 20260508235531 | 98 | 190 | 3.5 | 8.7 | 0.00 | 0.00 | 0.00 | 25 | 1002.5 |
| 20260508235029 | 98 | 190 | 3.5 | 8.7 | 0.00 | 0.00 | 0.00 | 25 | 1002.4 |
| 20260508234559 | 98 | 190 | 3.5 | 8.7 | 0.00 | 0.00 | 0.00 | 24 | 1002.9 |
| 20260508234536 | 98 | 190 | 4.3 | 8.7 | 0.00 | 0.00 | 0.00 | 25 | 1002.5 |
| 20260508234028 | 99 | 190 | 4.3 | 8.7 | 0.00 | 0.00 | 0.00 | 24 | 1002.5 |